[[{"header":{"parameterUnit":"m.s-1","parameterCategory":1,"la1":30.2991,"la2":30.254,"lo1":-89.0895,"lo2":-89.0444,"dy":0.0017,"dx":0.0017,"nx":28,"ny":28,"refTime":"2024-03-20T03:00:00:Z","depth":0,"parameterNumber":2,"parameterNumberName":"U-component_of_WINDS"},"data":[0,0,0,0,0,0,0,0,0,0,0,0,0,0,0,0,0,0,0,0,0,0,0,0,0,0,0,0,0,0,0,0,0,0,0,0,0,0,0,0,0,0,0,0,0,0,0,0,0,0,0,0,0,0,0,0,0,0,-3.3011,-3.3011,0,-3.3004,-3.3004,-3.3004,-3.2909,-3.2906,-3.2904,-3.2901,-3.2895,-3.2897,-3.2899,0,0,0,0,0,0,0,0,0,0,0,0,0,-3.2943,-3.2945,-3.3011,-3.3011,-3.3011,-3.3004,-3.3004,-3.3004,-3.2909,-3.2906,-3.2903,-3.29,-3.2894,-3.2896,-3.2899,0,0,0,0,0,0,0,0,0,0,0,0,0,-3.2958,-3.2945,-3.3011,-3.2963,-3.2958,-3.3004,-3.3004,-3.3004,-3.291,-3.2906,-3.2902,-3.2899,-3.2893,-3.2896,-3.2899,-3.2991,0,0,-3.2909,-3.291,0,0,0,0,0,0,0,0,-3.2957,-3.2961,-3.297,-3.2966,-3.2961,-3.2953,-3.2977,-3.3,-3.291,-3.2928,-3.2901,-3.2897,-3.2917,-3.2918,-3.2925,-3.2991,-3.299,-3.2909,-3.2911,-3.2912,-3.2913,0,0,0,0,0,0,0,-3.2956,-3.296,-3.3008,-3.297,-3.2965,-3.2942,-3.294,-3.2981,-3.2943,-3.2926,-3.2919,-3.292,-3.2914,-3.2922,-3.2924,-3.299,-3.2909,-3.2912,-3.2914,-3.2915,-3.3132,-3.3136,0,0,0,0,0,0,-3.2962,-3.296,-3.3008,-3.3008,-3.295,-3.2946,-3.2944,-3.296,-3.2942,-3.2936,-3.2923,-3.2915,-3.2918,-3.292,-3.2923,-3.303,-3.2912,-3.2915,-3.2917,-3.3128,-3.3133,-3.3137,0,0,0,0,0,0,-3.2961,-3.2967,-3.3009,-3.2982,-3.2986,-3.2951,-3.2969,-3.2961,-3.2969,-3.294,-3.2933,-3.2938,-3.2916,-3.2919,-3.2975,-3.3028,-3.2917,-3.2919,-3.3123,-3.3129,-3.3135,-3.3243,0,0,0,0,0,0,-3.2959,-3.2967,-3.3001,-3.2984,-3.2987,-3.3061,-3.2973,-3.2964,-3.2975,-3.2965,-3.2952,-3.2946,-3.2913,-3.2971,-3.2978,-3.303,-3.2922,-3.3118,-3.3126,-3.3133,-3.3235,-3.3252,-3.3267,0,0,0,0,0,-3.2957,-3.3032,-3.3004,-3.301,-3.3029,-3.3064,-3.3066,-3.3026,-3.2979,-3.3014,-3.2995,-3.2947,-3.3021,-3.2977,-3.2985,-3.3039,-3.3115,-3.3124,-3.3132,-3.3228,-3.3249,-3.3267,0,0,0,0,0,0,-3.3057,-3.3029,-3.2997,-3.3069,-3.3069,-3.3048,-3.3089,-3.305,-3.3064,-3.3054,-3.3004,-3.3002,-3.3066,-3.3058,-3.3009,-3.3127,-3.306,-3.307,-3.313,-3.315,-3.3165,-3.3166,-3.2924,0,0,0,0,0,-3.3087,-3.3118,-3.3091,-3.3157,-3.3159,-3.3125,-3.3138,-3.3107,-3.3106,-3.3106,-3.3091,-3.3092,-3.3116,-3.3132,-3.3152,-3.3234,-3.323,-3.3274,-3.3291,-3.3304,-3.3314,-3.3357,-3.3376,-3.3166,-3.3166,-3.3165,0,0,-3.315,-3.3139,-3.3161,-3.3177,-3.3174,-3.3206,-3.3125,-3.3163,-3.3187,-3.3112,-3.3164,-3.3153,-3.3151,-3.322,-3.325,-3.3216,-3.3371,-3.3315,-3.3326,-3.3328,-3.3368,-3.3388,-3.3405,-3.3172,-3.3171,-3.317,0,0,-3.3282,-3.3276,-3.333,-3.3329,-3.3326,-3.3302,-3.3316,-3.33,-3.3291,-3.3342,-3.3287,-3.3314,-3.3356,-3.3357,-3.3363,-3.3496,-3.3452,-3.3504,-3.3588,-3.363,-3.3647,-3.3661,-3.3709,-3.3727,-3.3514,-3.3514,-3.3514,0,-3.336,-3.3407,-3.3363,-3.3405,-3.3414,-3.3348,-3.3403,-3.3404,-3.3407,-3.3415,-3.3377,-3.3428,-3.3422,-3.349,-3.3523,-3.353,-3.3544,-3.3505,-3.3648,-3.3662,-3.3675,-3.372,-3.3738,-3.352,-3.352,-3.3519,-3.3518,0,-3.3504,-3.3537,-3.3581,-3.3587,-3.3601,-3.3649,-3.3613,-3.3633,-3.3601,-3.3582,-3.3636,-3.3627,-3.3644,-3.3658,-3.3628,-3.3723,-3.3702,-3.3657,-3.3588,-3.3702,-3.3743,-3.376,-3.3529,-3.3527,-3.3525,-3.3524,0,0,-3.3697,-3.3678,-3.3695,-3.3697,-3.3689,-3.3714,-3.376,-3.3777,-3.3795,-3.38,-3.3837,-3.3874,-3.3832,-3.3839,-3.3809,-3.3846,-3.3953,-3.3796,-3.3795,-3.3825,-3.4057,-3.4091,-3.4112,-3.3924,-3.3927,-3.3929,-3.4058,0,-3.3823,-3.3899,-3.3862,-3.3943,-3.3974,-3.3912,-3.3952,-3.3952,-3.3936,-3.396,-3.3942,-3.3969,-3.3912,-3.3916,-3.395,-3.3932,-3.3998,-3.3923,-3.3958,-3.396,-3.396,-3.4133,-3.4169,-3.429,-3.4073,-3.4076,-3.4078,0,-3.398,-3.3993,-3.4077,-3.4064,-3.4076,-3.4112,-3.4125,-3.4149,-3.4147,-3.4133,-3.4142,-3.4102,-3.4147,-3.4079,-3.414,-3.4089,-3.4101,-3.4095,-3.4099,-3.41,-3.4026,-3.4139,-3.4328,-3.4346,-3.4103,-3.4101,-3.4099,0,-3.4113,-3.415,-3.4205,-3.4209,-3.4196,-3.4223,-3.4219,-3.4214,-3.4227,-3.4238,-3.4246,-3.4263,-3.4272,-3.4286,-3.4253,-3.4207,-3.4318,-3.4248,-3.4308,-3.4309,-3.4333,-3.4332,-3.4527,-3.4342,-3.4342,-3.4342,-3.4341,0,-3.4258,-3.4312,-3.4265,-3.4299,-3.4358,-3.4315,-3.4375,-3.4364,-3.436,-3.4391,-3.4339,-3.437,-3.4324,-3.435,-3.4324,-3.4379,-3.4383,-3.4373,-3.4365,-3.4377,-3.4379,-3.4384,-3.4375,-3.4347,-3.4346,-3.4345,-3.4344,0,-3.4415,-3.4386,-3.4442,-3.4425,-3.4422,-3.4466,-3.4452,-3.4483,-3.4464,-3.4504,-3.4511,-3.4481,-3.4509,-3.4477,-3.4503,-3.4486,-3.4559,-3.4539,-3.4559,-3.4554,-3.4615,-3.461,-3.482,-3.4845,-3.4645,-3.4647,-3.4649,0,-3.4509,-3.4549,-3.4537,-3.4554,-3.4553,-3.4581,-3.4594,-3.4554,-3.457,-3.4573,-3.4604,-3.4627,-3.4644,-3.4692,-3.4673,-3.4692,-3.4672,-3.4744,-3.4675,-3.4686,-3.4673,-3.4671,-3.4675,-3.4758,-3.4761,-3.4763,-3.4764,0,-3.4679,-3.4663,-3.4684,-3.4701,-3.4718,-3.4729,-3.4736,-3.4753,-3.4711,-3.4732,-3.476,-3.4773,-3.48,-3.4824,-3.4838,-3.4834,-3.4793,-3.4787,-3.4801,-3.4814,-3.4824,-3.4819,-3.4598,-3.4782,-3.478,-3.4779,-3.4778,-3.4777,-3.4807,-3.484,-3.4837,-3.4862,-3.4864,-3.4872,-3.49,-3.4885,-3.4908,-3.4926,-3.4902,-3.4937,-3.4935,-3.495,-3.4951,-3.4978,-3.4947,-3.4969,-3.4974,-3.498,-3.4989,-3.482,-3.498,-3.498,-3.4979,-3.4979,-3.4979,0,-3.4974,-3.497,-3.4994,-3.5005,-3.5026,-3.4986,-3.4992,-3.5011,-3.5043,-3.5045,-3.5063,-3.5096,-3.512,-3.5103,-3.5123,-3.5148,-3.513,-3.5155,-3.5152,-3.5152,-3.5016,-3.5001,-3.5169,-3.5169,-3.5169,-3.5169,-3.5169,-3.5169,-3.5064,-3.5118,-3.5102,-3.5156,-3.5151,-3.5185,-3.5192,-3.52,-3.5201,-3.524,-3.526,-3.5249,-3.5244,-3.5263,-3.5283,-3.5278,-3.5288,-3.5319,-3.5307,-3.518,-3.5161,-3.5143,-3.5129,-3.5322,-3.5322,-3.5441,-3.5442,-3.5443]},{"header":{"parameterUnit":"m.s-1","parameterCategory":1,"la1":30.2991,"la2":30.254,"lo1":-89.0895,"lo2":-89.0444,"dy":0.0017,"dx":0.0017,"nx":28,"ny":28,"refTime":"2024-03-20T03:00:00:Z","depth":0,"parameterNumber":3,"parameterNumberName":"V-component_of_WINDS"},"data":[0,0,0,0,0,0,0,0,0,0,0,0,0,0,0,0,0,0,0,0,0,0,0,0,0,0,0,0,0,0,0,0,0,0,0,0,0,0,0,0,0,0,0,0,0,0,0,0,0,0,0,0,0,0,0,0,0,0,0.0679,0.0679,0,0.0659,0.0659,0.0659,0.0654,0.0654,0.0655,0.0655,0.0635,0.0634,0.0634,0,0,0,0,0,0,0,0,0,0,0,0,0,0.0713,0.0712,0.0679,0.0679,0.0678,0.0659,0.0659,0.0659,0.0654,0.0654,0.0655,0.0655,0.0635,0.0634,0.0634,0,0,0,0,0,0,0,0,0,0,0,0,0,0.0696,0.0712,0.0679,0.0674,0.0673,0.066,0.0659,0.0659,0.0654,0.0654,0.0655,0.0655,0.0635,0.0634,0.0633,0.0624,0,0,0.0631,0.063,0,0,0,0,0,0,0,0,0.0697,0.0695,0.0675,0.0674,0.0673,0.0659,0.0664,0.0647,0.0654,0.0661,0.0655,0.0655,0.0643,0.0641,0.0637,0.0623,0.0622,0.063,0.063,0.0629,0.0629,0,0,0,0,0,0,0,0.0698,0.0696,0.0671,0.0674,0.0674,0.0673,0.0671,0.0661,0.0651,0.0661,0.066,0.0658,0.0643,0.0638,0.0637,0.0622,0.063,0.063,0.0629,0.0629,0.0599,0.0599,0,0,0,0,0,0,0.07,0.0697,0.0672,0.0671,0.0686,0.0672,0.067,0.0664,0.0651,0.065,0.0658,0.0658,0.064,0.0638,0.0636,0.0624,0.0629,0.0629,0.0628,0.06,0.0599,0.0599,0,0,0,0,0,0,0.0701,0.0698,0.0673,0.0683,0.068,0.0671,0.0665,0.0663,0.0659,0.0649,0.0648,0.0655,0.064,0.0637,0.0627,0.0624,0.0628,0.0627,0.06,0.0599,0.0599,0.0601,0,0,0,0,0,0,0.0702,0.0698,0.0694,0.0683,0.068,0.0663,0.0664,0.0663,0.0657,0.0657,0.0646,0.0645,0.064,0.0629,0.0626,0.0622,0.0626,0.06,0.06,0.0599,0.0601,0.06,0.06,0,0,0,0,0,0.0703,0.0695,0.0694,0.0691,0.0674,0.0663,0.0661,0.0656,0.0657,0.0653,0.0647,0.0645,0.0625,0.0628,0.0625,0.0621,0.06,0.06,0.0599,0.0601,0.06,0.06,0,0,0,0,0,0,0.0705,0.0693,0.0692,0.068,0.0673,0.0662,0.0657,0.0655,0.0647,0.0647,0.0641,0.0639,0.0629,0.0624,0.0627,0.0611,0.0612,0.0611,0.0615,0.0614,0.0614,0.0615,0.0626,0,0,0,0,0,0.0704,0.0696,0.0686,0.0677,0.0673,0.0666,0.0661,0.0658,0.065,0.0646,0.064,0.0632,0.0624,0.0619,0.0611,0.06,0.0598,0.0596,0.0596,0.0596,0.0595,0.0589,0.0589,0.0598,0.0598,0.0598,0,0,0.0702,0.0695,0.069,0.0677,0.0671,0.0663,0.0663,0.0655,0.0649,0.0645,0.0635,0.063,0.0621,0.0611,0.0606,0.0606,0.0592,0.0595,0.0595,0.0594,0.0589,0.0588,0.0587,0.0597,0.0597,0.0597,0,0,0.0694,0.0688,0.0679,0.0674,0.0665,0.066,0.0658,0.0648,0.0645,0.0635,0.0632,0.0625,0.0611,0.0606,0.0601,0.0593,0.0591,0.059,0.0588,0.0583,0.0582,0.0582,0.0579,0.0578,0.0589,0.0589,0.0589,0,0.0693,0.068,0.0675,0.0667,0.0662,0.0659,0.0651,0.0646,0.0634,0.0631,0.0632,0.0615,0.0609,0.0597,0.0596,0.0592,0.059,0.0591,0.0583,0.0582,0.0581,0.0579,0.0578,0.0589,0.0589,0.0589,0.0589,0,0.0679,0.0671,0.0666,0.0655,0.065,0.0642,0.0636,0.0631,0.0628,0.0624,0.0614,0.0607,0.0598,0.0595,0.0592,0.0584,0.0584,0.0584,0.0585,0.0581,0.0578,0.0577,0.0589,0.0589,0.0589,0.0589,0,0,0.0671,0.0659,0.0657,0.0653,0.0643,0.0637,0.0629,0.0621,0.0617,0.061,0.0603,0.0592,0.0592,0.0587,0.0584,0.0579,0.0574,0.058,0.058,0.0579,0.0565,0.0565,0.0564,0.0573,0.0573,0.0573,0.0566,0,0.0662,0.0648,0.0644,0.0632,0.0625,0.0623,0.0616,0.061,0.0606,0.06,0.0595,0.0588,0.0588,0.0585,0.0581,0.0576,0.0571,0.0576,0.0567,0.0567,0.0569,0.0562,0.0562,0.0556,0.0564,0.0564,0.0564,0,0.0649,0.0642,0.063,0.0623,0.0619,0.0614,0.0606,0.06,0.0593,0.0591,0.0585,0.0583,0.0575,0.0577,0.0567,0.0571,0.0567,0.0564,0.0564,0.0563,0.0565,0.0561,0.0553,0.0553,0.0563,0.0563,0.0563,0,0.0645,0.0632,0.0624,0.062,0.0611,0.0607,0.0603,0.0597,0.0592,0.0586,0.0583,0.0576,0.0572,0.0566,0.0562,0.0564,0.0553,0.0554,0.055,0.0551,0.0548,0.0548,0.054,0.0546,0.0546,0.0546,0.0546,0,0.0635,0.0628,0.0622,0.0616,0.0608,0.0604,0.0597,0.0593,0.0587,0.0581,0.0579,0.0574,0.0569,0.0563,0.056,0.0552,0.055,0.0548,0.0547,0.0548,0.0549,0.0545,0.0546,0.0545,0.0545,0.0546,0.0546,0,0.0628,0.0624,0.0614,0.0607,0.0605,0.06,0.0593,0.0588,0.0585,0.0578,0.0576,0.057,0.0563,0.0559,0.055,0.0548,0.054,0.0539,0.0542,0.0542,0.0538,0.0539,0.0527,0.0526,0.0533,0.0533,0.0533,0,0.0622,0.0616,0.0609,0.0605,0.0601,0.0595,0.059,0.0587,0.0582,0.0575,0.0571,0.0564,0.0558,0.0548,0.0543,0.0536,0.0535,0.0532,0.0534,0.0536,0.0536,0.0536,0.0536,0.0531,0.0531,0.0531,0.0531,0,0.0612,0.061,0.0604,0.0598,0.0593,0.0587,0.0582,0.0579,0.0574,0.057,0.0563,0.0558,0.055,0.0543,0.0536,0.0533,0.0531,0.0531,0.053,0.053,0.0532,0.0531,0.0541,0.0531,0.0531,0.0531,0.0531,0.0531,0.0605,0.0601,0.0595,0.0588,0.0584,0.0579,0.0575,0.0571,0.0565,0.0558,0.0556,0.0549,0.0544,0.0535,0.0531,0.0526,0.0526,0.0525,0.0524,0.0524,0.0524,0.0534,0.0525,0.0525,0.0525,0.0525,0.0525,0,0.0595,0.0592,0.0586,0.0579,0.0574,0.0574,0.0568,0.0564,0.0558,0.0553,0.0548,0.054,0.0534,0.053,0.0523,0.052,0.052,0.0519,0.0519,0.0518,0.0524,0.0525,0.0519,0.0519,0.0519,0.0519,0.0519,0.0519,0.0589,0.0581,0.058,0.057,0.0567,0.056,0.0557,0.0553,0.0549,0.0541,0.0536,0.0533,0.0529,0.0522,0.0517,0.0516,0.0514,0.0513,0.0512,0.0517,0.0518,0.0518,0.052,0.0513,0.0513,0.0507,0.0507,0.0507]}]]